Szolnok, Hungary

3:41 PM CEST on August 16, 2017 (GMT +0200)
Szolnok

Weather History for LHSN - November, 2012

Change the Weather History Date:

Saturday, November 10, 2012

  Actual Average (LHBP) Record (LHBP)
Temperature  
Mean Temperature 37 °F -  
Max Temperature 44 °F 49 °F 66 °F (2015)
Min Temperature 30 °F 34 °F 23 °F (2016)
Degree Days  
Heating Degree Days 28    
Moisture  
Dew Point 37 °F    
Average Humidity 96    
Maximum Humidity 100    
Minimum Humidity 93    
Precipitation  
Precipitation 0.00 in - - ()
Sea Level Pressure  
Sea Level Pressure 30.16 in    
Wind  
Wind Speed 4 mph ()    
Max Wind Speed 11 mph    
Max Gust Speed -    
Visibility 0.9 miles    
Events Fog    
Averages and records for this station are not official NWS values.
T = Trace of Precipitation, MM = Missing Value Source: Averaged Metar Reports

Daily Weather History Graph

Daily Weather History Graph

Search for Another Location

Airport or City:

Trip Planner

Search our weather history database for the weather conditions in past years. The results will help you decide how hot, cold, wet, or windy it might be!

Date:

Astronomy

Nov. 10, 2012 Rise Set
Actual Time 6:35 AM CET 4:09 PM CET
Civil Twilight 6:02 AM CET 4:42 PM CET
Nautical Twilight 5:26 AM CET 5:19 PM CET
Astronomical Twilight 4:50 AM CET 5:54 PM CET
Moon 2:05 AM CET (11/10) 1:58 PM CET (11/10)
Length of Visible Light 10h 39m
Length of Day
9h 33m
Waning Crescent, 16% of the Moon is Illuminated
Nov 10
Waning Crescent
Nov 13
New
Nov 20
First Quarter
Nov 28
Full
Dec 6
Last Quarter

Hourly Weather History & Observations

Time (CET) Temp. Windchill Dew Point Humidity Pressure Visibility Wind Dir Wind Speed Gust Speed Precip Events Conditions
12:15 AM 35.6 °F - 35.6 °F 100% 30.18 in 0.3 mi North 2.2 mph - N/A Fog Fog
12:45 AM 33.8 °F - 32.0 °F 93% 30.18 in 0.1 mi NNW 2.2 mph - N/A Fog Fog
1:15 AM 32.0 °F - 32.0 °F 100% 30.18 in 0.1 mi NNW 2.2 mph - N/A Fog Fog
1:45 AM 33.8 °F 29.7 °F 33.8 °F 100% 30.18 in 0.1 mi NW 4.5 mph - N/A Fog Fog
2:15 AM 33.8 °F - 32.0 °F 93% 30.18 in 0.1 mi Calm Calm - N/A Fog Fog
2:45 AM 32.0 °F - 32.0 °F 100% 30.18 in 0.1 mi Calm Calm - N/A Fog Light Freezing Fog
3:15 AM 32.0 °F - 30.2 °F 93% 30.18 in 0.1 mi Calm Calm - N/A Fog Fog
3:45 AM 32.0 °F - 30.2 °F 93% 30.18 in 0.1 mi Calm Calm - N/A Fog Light Freezing Fog
4:15 AM 30.2 °F - 30.2 °F 100% 30.15 in 0.1 mi Calm Calm - N/A Fog Light Freezing Fog
4:45 AM 32.0 °F - 30.2 °F 93% 30.18 in 0.1 mi Calm Calm - N/A Fog Light Freezing Fog
5:15 AM 32.0 °F - 32.0 °F 100% 30.18 in 0.1 mi NW 2.2 mph - N/A Fog Fog
5:45 AM - - - N/A% - 0.9 mi Variable 4.5 mph - N/A Fog Fog
6:15 AM 33.8 °F - 32.0 °F 93% 30.18 in 0.1 mi East 2.2 mph - N/A Fog Fog
6:45 AM 32.0 °F 27.6 °F 32.0 °F 100% 30.18 in 0.1 mi East 4.5 mph - N/A Fog Fog
7:15 AM 33.8 °F 29.7 °F 32.0 °F 93% 30.18 in 0.1 mi ESE 4.5 mph - N/A Fog Fog
7:45 AM 33.8 °F 29.7 °F 32.0 °F 93% 30.18 in 0.1 mi East 4.5 mph - N/A Fog Fog
8:15 AM 33.8 °F 27.9 °F 33.8 °F 100% 30.18 in 0.1 mi ESE 6.7 mph - N/A Fog Fog
8:45 AM - - - N/A% - 0.5 mi SE 8.9 mph - N/A Fog Fog
9:00 AM - - - N/A% - 0.5 mi ESE 8.9 mph - N/A Fog Fog
9:15 AM 35.6 °F 30.0 °F 35.6 °F 100% 30.21 in 0.1 mi ESE 6.7 mph - N/A Fog Fog
9:45 AM 37.4 °F 32.2 °F 35.6 °F 93% 30.21 in 0.1 mi ESE 6.7 mph - N/A Fog Fog
10:15 AM 37.4 °F 32.2 °F 37.4 °F 100% 30.21 in 0.2 mi SE 6.7 mph - N/A Fog Fog
10:45 AM 39.2 °F 34.4 °F 37.4 °F 93% 30.21 in 0.2 mi SE 6.7 mph - N/A Fog Fog
11:15 AM 41.0 °F 35.4 °F 39.2 °F 93% 30.18 in 0.2 mi SE 8.9 mph - N/A Fog Fog
11:45 AM - - - N/A% - 0.9 mi SSE 8.9 mph - N/A   Mostly Cloudy
12:15 PM 41.0 °F 34.4 °F 41.0 °F 100% 30.18 in 0.4 mi ESE 11.2 mph - N/A Fog Fog
12:23 PM 41.0 °F 34.4 °F 41.0 °F 100% 30.18 in 0.5 mi SSE 11.2 mph - N/A Fog Fog
12:45 PM 42.8 °F 37.6 °F 41.0 °F 93% 30.18 in 0.6 mi SE 8.9 mph - N/A   Overcast
1:00 PM - - - N/A% - 0.9 mi SSE 8.9 mph - N/A   Overcast
1:15 PM 42.8 °F 37.6 °F 41.0 °F 93% 30.18 in 0.7 mi SSE 8.9 mph - N/A   Overcast
2:15 PM 42.8 °F 37.6 °F 42.8 °F 100% 30.15 in 0.9 mi SE 8.9 mph - N/A   Overcast
2:45 PM - - - N/A% - 0.9 mi SE 8.9 mph - N/A   Mostly Cloudy
3:00 PM - - - N/A% - 0.9 mi SE 8.9 mph - N/A   Mostly Cloudy
3:15 PM 44.6 °F 39.8 °F 42.8 °F 93% 30.15 in 1.2 mi SE 8.9 mph - N/A   Overcast
3:45 PM 44.6 °F 39.8 °F 42.8 °F 93% 30.12 in 1.9 mi SSE 8.9 mph - N/A   Overcast
4:15 PM 44.6 °F 42.3 °F 42.8 °F 93% 30.15 in 1.9 mi SSE 4.5 mph - N/A   Overcast
4:45 PM 44.6 °F 42.3 °F 42.8 °F 93% 30.12 in 1.9 mi SE 4.5 mph - N/A   Overcast
5:15 PM 44.6 °F 42.3 °F 42.8 °F 93% 30.12 in 1.9 mi East 4.5 mph - N/A   Overcast
5:45 PM - - - N/A% - 1.9 mi ESE 6.7 mph - N/A Fog Fog
6:15 PM 42.8 °F 38.7 °F 41.0 °F 93% 30.12 in 1.9 mi East 6.7 mph - N/A   Overcast
6:45 PM 42.8 °F 38.7 °F 41.0 °F 93% 30.12 in 1.9 mi East 6.7 mph - N/A   Mostly Cloudy
7:15 PM 41.0 °F 36.5 °F 41.0 °F 100% 30.12 in 1.2 mi East 6.7 mph - N/A   Scattered Clouds
7:45 PM 41.0 °F 36.5 °F 39.2 °F 93% 30.12 in 1.9 mi East 6.7 mph - N/A   Scattered Clouds
8:15 PM 41.0 °F 36.5 °F 41.0 °F 100% 30.12 in 1.9 mi East 6.7 mph - N/A   Scattered Clouds
8:45 PM - - - N/A% - 1.9 mi ESE 6.7 mph - N/A Fog Fog
9:15 PM 41.0 °F 38.1 °F 39.2 °F 93% 30.12 in 1.9 mi East 4.5 mph - N/A   Partly Cloudy
9:45 PM 39.2 °F 36.0 °F 37.4 °F 93% 30.12 in 1.9 mi East 4.5 mph - N/A   Partly Cloudy
10:15 PM 39.2 °F 36.0 °F 37.4 °F 93% 30.12 in 1.9 mi East 4.5 mph - N/A   Partly Cloudy
10:45 PM 39.2 °F 36.0 °F 37.4 °F 93% 30.12 in 1.9 mi East 4.5 mph - N/A   Partly Cloudy
11:15 PM 37.4 °F 32.2 °F 35.6 °F 93% 30.12 in 1.9 mi East 6.7 mph - N/A   Partly Cloudy
11:45 PM - - - N/A% - 1.9 mi North - - N/A Fog Fog